Weather History for KAAT - July, 2013

Change the Weather History Date:

Wednesday, July 17, 2013

  Actual Average Record
Temperature  
Mean Temperature 63 °F 67 °F  
Max Temperature 89 °F 89 °F 101 °F (1998)
Min Temperature 37 °F 45 °F 31 °F (1993)
Degree Days  
Heating Degree Days 2 1  
Month to date heating degree days 4 27  
Since 1 June heating degree days 160 207  
Since 1 July heating degree days 4 27  
Cooling Degree Days 0 3  
Month to date cooling degree days 79 37  
Year to date cooling degree days 122 48  
Since 1 June cooling degree days 122 48  
Growing Degree Days 13 (Base 50)    
Moisture  
Dew Point 24 °F    
Average Humidity 38    
Maximum Humidity 70    
Minimum Humidity 6    
Precipitation  
Precipitation 0.00 in 0.01 in 0.42 in (1976)
Month to date precipitation T 0.13  
Year to date precipitation 4.43 8.57  
Sea Level Pressure  
Sea Level Pressure 30.08 in    
Wind  
Wind Speed 3 mph (WNW)    
Max Wind Speed 20 mph    
Max Gust Speed 32 mph    
Visibility 10 miles    
Events      
T = Trace of Precipitation, MM = Missing Value Source: NWS Daily Summary

Daily Weather History Graph

Daily Weather History Graph

Search for Another Location

Airport or City:

Trip Planner

Search our weather history database for the weather conditions in past years. The results will help you decide how hot, cold, wet, or windy it might be!

Date:

Astronomy

Jul. 17, 2013 Rise Set
Actual Time 5:43 AM PDT 8:32 PM PDT
Civil Twilight 5:10 AM PDT 9:05 PM PDT
Nautical Twilight 4:29 AM PDT 9:46 PM PDT
Astronomical Twilight 3:41 AM PDT 10:33 PM PDT
Moon 3:27 PM PDT (7/17) 12:55 AM PDT (7/17)
Length of Visible Light 15h 54m
Length of Day
14h 49m
Waxing Gibbous, 68% of the Moon is Illuminated
Jul 17
Waxing Gibbous
Jul 22
Full
Jul 29
Last Quarter
Aug 6
New
Aug 14
First Quarter

Hourly Weather History & Observations

Time (PDT) Temp. Dew Point Humidity Pressure Visibility Wind Dir Wind Speed Gust Speed Precip Events Conditions
12:55 AM 50.0 °F 28.9 °F 44% 30.03 in 10.0 mi Calm Calm - N/A   Clear
1:55 AM 45.0 °F 27.0 °F 49% 30.05 in 10.0 mi Calm Calm - N/A   Clear
2:55 AM 43.0 °F 27.0 °F 53% 30.06 in 10.0 mi Calm Calm - N/A   Clear
3:55 AM 44.1 °F 28.9 °F 55% 30.07 in - Calm Calm - N/A   Clear
4:55 AM 37.9 °F 26.1 °F 62% 30.10 in - Calm Calm - N/A   Clear
5:55 AM 37.0 °F 28.0 °F 70% 30.13 in - Calm Calm - N/A   Clear
6:55 AM 46.0 °F 28.9 °F 51% 30.13 in - Calm Calm - N/A   Clear
7:55 AM 55.9 °F 33.1 °F 42% 30.12 in - Calm Calm - N/A   Clear
8:55 AM 63.0 °F 33.1 °F 33% 30.12 in 10.0 mi Calm Calm - N/A   Clear
9:55 AM 70.0 °F 28.9 °F 22% 30.12 in 10.0 mi Calm Calm - N/A   Clear
10:55 AM 75.0 °F 25.0 °F 16% 30.09 in 10.0 mi Calm Calm - N/A   Clear
11:55 AM 78.1 °F 19.9 °F 11% 30.10 in 10.0 mi Variable 5.8 mph - N/A   Clear
12:55 PM 82.0 °F 15.1 °F 8% 30.09 in 10.0 mi Calm Calm - N/A   Clear
1:55 PM 86.0 °F 12.9 °F 7% 30.08 in 10.0 mi Variable 4.6 mph - N/A   Clear
2:55 PM 87.1 °F 12.9 °F 6% 30.07 in 10.0 mi North 8.1 mph - N/A   Clear
3:55 PM 88.0 °F 18.0 °F 8% 30.06 in 10.0 mi NNW 8.1 mph - N/A   Clear
4:55 PM 89.1 °F 19.9 °F 8% 30.04 in 10.0 mi WNW 8.1 mph - N/A   Clear
5:55 PM 88.0 °F 18.0 °F 8% 30.04 in 10.0 mi West 6.9 mph - N/A   Clear
6:55 PM 86.0 °F 17.1 °F 8% 30.03 in 10.0 mi West 12.7 mph - N/A   Clear
7:55 PM 82.0 °F 19.9 °F 10% 30.03 in 10.0 mi West 10.4 mph - N/A   Clear
8:55 PM 73.9 °F 24.1 °F 16% 30.05 in 10.0 mi West 8.1 mph - N/A   Clear
9:55 PM 66.9 °F 21.9 °F 18% 30.07 in 10.0 mi North - - N/A   Clear
10:55 PM 62.1 °F 28.9 °F 29% 30.09 in 10.0 mi North - - N/A   Clear
11:55 PM 57.0 °F 30.9 °F 37% 30.10 in 10.0 mi Calm Calm - N/A   Clear